STARLINK-32303, 61912

Orbit data source: Space-Track

STARLINK-32303, 61912 is a payload satellite owned by SpaceX/Seattle (US) in LEO that was launched on Mon, 11 Nov 2024 UTC via an FALCON 9 launch vehicle from the Air Force Eastern Test Range (AFETR). Payload-class satellites include a variety of spacecraft equipped with specific instruments for various scientific and technological missions. These include communications satellites like Starlink; space stations such as the ISS; scientific satellites like the Hubble; Earth observation satellites from companies like Planet Labs, Umbra, and HawkEye 360; GPS; miniature CubeSats for education and research; and military/defense satellites.

Loading next visibility...
Identifier
61912, 2024-207A
Orbit
LEO
Country
Flag of USUS
Related business
Manufacturer
SpaceX/Seattle
Mission
Operational Commercial Communications
Bus & Motor
STARLINK V2M, Unknown motor
Mass
730 kg wet, ~700 kg dry
Launch date (UTC)
2024-11-11 (2 years ago)
Launch vehicle
FALCON 9
Launch site
Air Force Eastern Test Range (AFETR)
Object type
Payload
Rocket body
Debris
Shape & HBR
Box + 2 Pan, 17.7 m
Radar Cross Section
33.884 m², Large (>1 m²)

Expand to show TLE details & history
Last TLE update: 9 hours ago

TLE from 9 hours ago
0 STARLINK-32303
1 61912U 24207A   26145.52536398  .00012989  00000-0  48070-3 0  9994
2 61912  43.0012 207.7679 0001352 277.0187  83.0511 15.27580364 87062
Epoch: 2026-05-25T12:36Z
TLE epoch observation values (Epoch: 2026-05-25T12:36:31.447Z)
Latitude
-0.00002°
Longitude
135.52494°
Altitude
482.711 km
Speed
7.626 km/s
True Right ascension
13h 51m 04s
True Declination
0° 00' 00"
Sunlit
Object was in full shadow at epoch
Visualization orbit readout
Latitude
Unknown
Longitude
Unknown
Altitude
Unknown
Speed
Unknown
Apparent Right ascension
Unknown
Apparent Declination
Unknown
Sunlit
N/A
Visualization observer readout
Local Sidereal Time
07:17:55
Azimuth
Unknown
Elevation
Unknown
Doppler factor
Unknown
Orbital elements
Apogee altitude
485.921 km
Perigee altitude
484.065 km
Semi-major axis
6,863.13 km
Eccentricity
0.00014
Inclination
43.0012°
RAAN
207.7679°
Arg. of periapsis
277.0187°
True anomaly
83.06648°
Mean anomaly
83.0511°
Eccentric anomaly
83.05879°
Mean motion
3.81733 °/min
Orbital period
94.31 mins
BSTAR
0.0004807
Loading maneuver chart data...
Computing Atmospheric mass density...
Loading historical data...
Loading historical data...
Loading historical data...
Loading historical data...
Loading historical data...
Loading historical data...
Loading historical data...

Documentation

Showing up to 5 results
|